Location: *
(49.0044°N, 9.5056°E)
Time: 09:51:04
(UTC+00:00)

CZ-2C R/B - Pass Details

Date: 22 September 2019
Orbit: 704 x 907 km, 98.1° (Epoch: 19 October)

Event Time Altitude Azimuth Distance (km) Brightness Sun altitude
Exits shadow 18:14:50 12° 103° (ESE) 2,279 4.8 -9.6°
Maximum altitude 18:18:23 22° 58° (ENE) 1,761 4.5 -10.2°
Drops below altitude 10° 18:22:36 10° 9° (N) 2,531 5.7 -10.9°
Sets 18:25:31 0° 355° (N) 3,500 6.7 -11.3°
